Regional Weather Roundup
Issued by NWS Green Bay, WI

Home | Current Version | Previous Version | Text Only | Print | Product List | Glossary On
Versions: 1 2 3 4 5 6 7 8 9 10 11 12 13 14 15 16 17 18 19 20 21 22 23 24 25 26 27 28 29 30 31 32 33 34 35 36 37 38 39 40 41 42 43 44 45 46 47 48 49 50
000
ASUS43 KGRB 040611
RWRGRB

NORTH-CENTRAL AND NORTHEAST WISCONSIN REGIONAL WEATHER ROUNDUP
NATIONAL WEATHER SERVICE GREEN BAY WI
100 AM CDT TUE AUG 04 2015

WIZ005-009-010>012-018-019-040700-
NORTH CENTRAL WISCONSIN

CITY           SKY/WX    TMP DP  RH WIND       PRES   REMARKS
IRONWOOD       MOCLDY    57  57 100 SW3       29.86S
MANITOWISH WTR PTCLDY    56  56 100 CALM      29.90R
ARBOR VITAE    PTCLDY    58  56  91 CALM      29.90R
EAGLE RIVER    CLOUDY    56  56  98 W6        29.89S
LAND O LAKES   MOCLDY    57  55  94 NW6       29.89S
RHINELANDER    CLOUDY    59  55  87 CALM      29.91R
PHILLIPS       PTCLDY    58  54  88 CALM      29.91R
ANTIGO         CLOUDY    56  54  95 N8        29.91R
TOMAHAWK       CLOUDY    57  55  90 CALM      29.91S
MERRILL        NOT AVBL
$$

WIZ013-073-040700-
NORTHEAST WISCONSIN

CITY           SKY/WX    TMP DP  RH WIND       PRES   REMARKS
IRON MOUNTAIN  MOCLDY    58  56  93 W5        29.85R
MARINETTE      CLOUDY    61  54  77 N5        29.84F
OCONTO         CLEAR     60  58  91 NW5       29.86R
$$

WIZ017-030-035>037-045-040700-
CENTRAL WISCONSIN

CITY           SKY/WX    TMP DP  RH WIND       PRES   REMARKS
MEDFORD        CLOUDY    61  55  81 W6        29.92R
WAUSAU         CLOUDY    64  55  72 NW9       29.89R
MOSINEE        CLOUDY    61  55  82 W3        29.91R
MARSHFIELD     CLOUDY    62  53  72 W6        29.91R
WISC RAPIDS    CLOUDY    61  52  72 SW5       29.91S
STEVENS POINT  CLOUDY    62  53  71 W3        29.90S
WAUPACA        PTCLDY    61  55  79 W3        29.90R
SHAWANO        CLEAR     59  56  87 SW3       29.89R
CLINTONVILLE   CLOUDY    55  52  88 CALM      29.88S
$$

WIZ038-039-048-051-040700-
FOX VALLEY

CITY           SKY/WX    TMP DP  RH WIND       PRES   REMARKS
NWS GREEN BAY  CLEAR     61  56  83 SW3       29.88R
APPLETON       CLEAR     57  50  77 W6        29.89S
OSHKOSH        CLEAR     62  53  72 W3        29.89S
FOND DU LAC    CLEAR     61  54  77 SW7       29.90S
$$

WIZ022-050-052-040700-
EAST CENTRAL WISCONSIN

CITY           SKY/WX    TMP DP  RH WIND       PRES   REMARKS
STURGEON BAY   MOCLDY    63  54  72 NW14      29.89R
MANITOWOC      CLEAR     63  56  78 MISG      29.88S
SHEBOYGAN      CLEAR     61  55  81 W5        29.89S
$$

LMZ563-521-522-541>543-040700-
LAKESHORE

STATION/POSITION TIME  TEMP    WIND        PRES    VSBY  WAVE
                       AIR SEA DIR/SP/G                  HT/PER
                 (UTC) (F)     (DEG/KT/KT) (MB)    (MI)  (FT/S)
SHEBOYGAN LKSHOR 0600   67     280/  8/ 10 1012.1R
KEWAUNEE LKSHORE 0500   62     300/  3/  5 1010.7R
ALGOMA MARINA    0512           CALM  /  2   N/A
NORTHPORT PIER   0500   66     260/  4/  6 1010.8R
N MID LAKE BUOY  0550   67 68  240/  6/  8 1009.8S         1
S GREEN BAY BUOY 0600   65 71  320/ 10/ 12 1012.6R
SISTER BAY LKSHO 0518   68     320/ 12/ 13   N/A
CHAMBERS ISLAND  0500   66     270/  3/  8 1010.8R
MENOMINEE LKSHOR 0500   66     270/  6/ 10 1011.5R
$$



USA.gov is the U.S. government's official web portal to all federal, state and local government web resources and services.